Location: Nag� el Ma?a??a
(24.0667°N, 32.8833°E)
Time: 17:13:34
(UTC+00:00)

GENESIS II - Pass Details

Date: 25 September 2021
Orbit: 499 x 525 km, 64.5° (Epoch: 16 October)

Event Time Altitude Azimuth Distance (km) Brightness Sun altitude
Exits shadow 02:24:52 18° 325° (NW) 1,340 6.0 -17.5°
Maximum altitude 02:27:42 64° 246° (WSW) 578 4.1 -16.9°
Drops below altitude 10° 02:31:35 10° 165° (SSE) 1,751 7.0 -16.0°
Sets 02:33:47 0° 162° (SSE) 2,638 8.0 -15.5°
